Miscellaneous Local Product
Issued by NWS Hastings, NE

Home | Current Version | Previous Version | Text Only | Print | Product List | Glossary Off
Versions: 1 2 3 4 5 6 7 8 9 10 11 12 13 14 15 16 17 18 19 20 21 22 23 24 25 26 27 28 29 30 31 32 33 34 35 36 37 38 39 40 41 42 43 44 45 46 47 48 49 50

993
AXUS43 KGID 210702
MISGRI

GID CWA HOURLY WEATHER ROUNDUP
NATIONAL WEATHER SERVICE HASTINGS NE
200 AM CDT SAT APR 21 2018

NOTE: "FAIR" INDICATES FEW OR NO CLOUDS BELOW 12,000 FEET WITH NO
SIGNIFICANT WEATHER AND/OR OBSTRUCTIONS TO VISIBILITY.

...SOUTH CENTRAL NEBRASKA...

CITY           SKY/WX    TMP DP  RH WIND       PRES   REMARKS
GRAND ISLAND   LGT RAIN  44  38  79 E10       30.31F
KEARNEY        LGT RAIN  41  39  93 E13       30.29F
HASTINGS       LGT RAIN  43  39  86 E8        30.28F
ORD            LGT RAIN  43  38  82 SE12G22   30.32R
YORK             N/A     48  34  57 SE16      30.31F
AURORA         LGT RAIN  44  37  74 E15G23    30.30F
LEXINGTON      RAIN      42  39  90 E15       30.28F
HOLDREGE       LGT RAIN  41  41  99 E10       30.27S
HEBRON         RAIN      47  40  77 SE5       30.29S

...NEBRASKA PANHANDLE...

CITY           SKY/WX    TMP DP  RH WIND       PRES   REMARKS
CHADRON        CLOUDY    40  37  89 S8        30.25R WCI  34
ALLIANCE       LGT RAIN  35  35 100 SE9       30.23R WCI  28
SCOTTSBLUFF    MIX PCPN  35 N/A N/A SE12      30.22R WCI  27
SIDNEY         MIX PCPN  34  33  96 E14       30.19S FOG     WCI  25

...WESTERN AND NORTH CENTRAL NEBRASKA...

CITY           SKY/WX    TMP DP  RH WIND       PRES   REMARKS
VALENTINE      CLOUDY    42  38  85 CALM      30.30R
AINSWORTH      CLOUDY    40  38  93 E3        30.30R
ONEILL         CLOUDY    46  37  73 E10       30.30S
BROKEN BOW     LGT RAIN  42  39  89 SE14      30.29R
IMPERIAL       LGT RAIN  40  39  97 E17       30.21S WCI  31
NORTH PLATTE   LGT RAIN  42  39  89 SE14      30.26S
MCCOOK         CLOUDY    42  41  96 E13       30.22F

...EASTERN NEBRASKA...

CITY           SKY/WX    TMP DP  RH WIND       PRES   REMARKS
NORFOLK        CLOUDY    45  35  68 SE9       30.32S
SO SIOUX CITY  CLOUDY    43  32  65 E8        30.35F
TEKAMAH        CLOUDY    46  36  68 N6        30.34F
COLUMBUS       LGT RAIN  46  35  65 SE6       30.36R
ALBION         LGT RAIN  46  36  69 S6        30.33R
OMAHA EPPLEY   CLOUDY    52  27  38 E8        30.34R
OFFUTT AFB     CLOUDY    50  27  41 SE7       30.33R
MILLARD        CLOUDY    52  30  41 SE6       30.34R
LINCOLN        CLOUDY    52  27  38 E8        30.33R
NEBRASKA CITY  CLOUDY    48  30  49 E5        30.32S
BEATRICE       CLOUDY    52  29  42 E3        30.30S
FALLS CITY     CLOUDY    50  25  37 NE6       30.29R

...NORTHERN KANSAS...

CITY           SKY/WX    TMP DP  RH WIND       PRES   REMARKS
GOODLAND       LGT RAIN  40  39  97 SE15G25   30.13R WCI  32
HILL CITY      CLOUDY    43  43 100 E12       30.21F
NORTON         CLOUDY    43  39  87 E9        30.21F
PHILLIPSBURG   CLOUDY    45  45 100 E12       30.25F
SMITH CENTER   DRIZZLE   41  39  93 E10       30.26F
BELOIT         CLOUDY    43  39  87 E6        30.26F
HAYS           LGT RAIN  43  42  97 E14       30.20F
RUSSELL        LGT RAIN  44  44 100 NE10      30.18F
CONCORDIA      LGT RAIN  46  39  76 E5        30.26R
SALINA         LGT RAIN  52  38  58 E7        30.22S
TOPEKA         CLOUDY    54  26  34 E10       30.25S



USA.gov is the U.S. government's official web portal to all federal, state and local government web resources and services.